sat.trackr.live / text

‹ back to catalog

HISPASAT 30W-6

NORAD 43228 · 2018-023A

PAYLOAD ACTIVE UNKNOWN

§ Identity

Operator
Country
SPN
Launch date
2018-03-06
Launch site
AFETR
Launch vehicle
Mass (kg)
RCS (m²)

Purposes: comms

External: N2YO · Heavens-Above · Gunter

§ Orbital elements

Epoch: 2026-09-19T08:16:34.430880Z

Period
1,436.08 min
Inclination
0.0464°
Eccentricity
0.0003283
Mean motion
1.00272764 rev/d
Perigee alt
35,772.5 km
Apogee alt
35,800.2 km
Semi-major
42,164.5 km
B*
0.0000e+0
RAAN
36.8188°
Arg perigee
104.3932°
Mean anomaly
311.1958°
Rev number
3,135

§ Raw data

HISPASAT 30W-61 43228U 18023A   26262.34484295 -.00000220  00000+0  00000+0 0  99932 43228   0.0464  36.8188 0003283 104.3932 311.1958  1.00272764 31356

JSON: /api/v1/satellites/43228 · /tle

For live sub-satellite position, see the globe view (requires WebGL).

§ Visibility from observer

Set your observer location to see the next 7 days of passes ≥ 10°. The values pass through the URL so the page stays shareable.

No JS? Fill the form by hand. The geolocation button needs JavaScript.